Regional Weather Roundup
Issued by NWS

Home | Current Version | Previous Version | Text Only | Print | Product List | Glossary On
Versions: 1 2 3 4 5 6 7 8 9 10 11 12 13 14 15 16 17 18 19 20 21 22 23 24 25 26 27 28 29 30 31 32 33 34 35 36 37 38 39 40 41 42 43 44 45 46 47 48 49 50
000
ASUS43 KDMX 191401
RWRIA

WEATHER ROUNDUP FOR IOWA
NATIONAL WEATHER SERVICE DES MOINES IA
800 AM CST FRI JAN 19 2018

NOTE: "FAIR" INDICATES FEW OR NO CLOUDS BELOW 12,000 FEET WITH NO
SIGNIFICANT WEATHER AND/OR OBSTRUCTIONS TO VISIBILITY.

* - THESE STATIONS ARE NOT NWS STATIONS...THUS NOT UNDER NWS
QUALITY CONTROL.  THEY ALSO DO NOT REPORT WEATHER SUCH
AS PRECIPITATION OR FOG.

IAZ001>003-012>014-020>022-031>034-043>046-191500-
   NORTHWEST IOWA

CITY           SKY/WX    TMP DP  RH WIND       PRES   REMARKS
CARROLL *      CLOUDY    34  25  69 SW18      29.71S WCI  23
CHEROKEE *     CLOUDY    29  25  84 S9        29.65F WCI  21
DENISON *      CLOUDY    32  25  74 S12       29.73S WCI  23
LE MARS *      CLOUDY    30  25  80 S14       29.63F WCI  20
ORANGE CITY *  CLOUDY    30  27  86 S5        29.62S WCI  25
SHELDON *      CLOUDY    28  27  93 S8        29.60F WCI  20
SIOUX CITY     CLOUDY    28  23  81 SE10      29.66F WCI  19
SPENCER        CLOUDY    28  23  81 S9        29.62F WCI  19
STORM LAKE *   MIX PCPN  30  23  74 SW17      29.65F WCI  18
$$

IAZ055>058-069>071-079>083-090>094-191500-
   SOUTHWEST IOWA

CITY           SKY/WX    TMP DP  RH WIND       PRES   REMARKS
ATLANTIC *     CLOUDY    30  25  80 S14       29.77S WCI  20
AUDUBON *      CLOUDY    32  25  74 S14       29.76R WCI  22
CLARINDA *     CLOUDY    28  23  80 S8        29.84  WCI  20
COUNCIL BLFS * CLOUDY    34  27  75 SW14      29.76S WCI  24
CRESTON *      CLOUDY    32  23  69 SW16G22   29.81F WCI  21
HARLAN  *      CLOUDY    30  25  80 S12       29.79R WCI  21
LAMONI         CLOUDY    31  20  63 S15       29.84F WCI  20
RED OAK *      CLOUDY    30  25  80 S10       29.80S WCI  21
SHENANDOAH *   CLOUDY    34  25  69 S12       29.82S WCI  25
$$

IAZ047>049-059>061-072>074-084-191500-
   CENTRAL IOWA

CITY           SKY/WX    TMP DP  RH WIND       PRES   REMARKS
AMES           CLOUDY    31  25  78 S7        29.77R WCI  24
ANKENY *       PTCLDY    34  25  69 SW10      29.79F WCI  26
BOONE *        CLOUDY    32  25  74 SW12      29.74R WCI  23
CHARITON *     CLOUDY    32  21  64 SW14G20   29.82F WCI  22
DES MOINES       N/A     33  23  66 MISG      29.79F
GRINNELL*      CLOUDY    29  22  76 S12       29.80F WCI  19
KNOXVILLE *    PTCLDY    34  21  60 SW16      29.80F WCI  23
MARSHALLTOWN   CLOUDY    29  23  78 S12       29.77F WCI  19
NEWTON *       PTCLDY    30  23  74 S14G20    29.79F WCI  20
PELLA *        CLOUDY    33  22  65 S9        29.83F WCI  25
PERRY *          N/A     28  24  86 S8        29.76R WCI  20
$$

IAZ004>006-015-016-023>025-035-036-191500-
   NORTH CENTRAL IOWA

CITY           SKY/WX    TMP DP  RH WIND       PRES   REMARKS
ALGONA *       CLOUDY    27 N/A N/A S15       29.66F WCI  15
CLARION *      CLOUDY    25  27 100 S15       29.70F WCI  12
ESTHERVILLE    CLOUDY    23  22  96 S13       29.62F WCI  11
FORT DODGE *   CLOUDY    29  24  82 S12       29.70F WCI  19
MASON CITY     CLOUDY    28  22  78 S15       29.69F WCI  16
FOREST CITY *    N/A     30  25  80 S9        29.67F WCI  22
WEBSTER CITY * CLOUDY    25  21  86 S12       29.70F WCI  14
IOWA FALLS *     N/A     28  24  84 S8        29.74F WCI  20
$$

IAZ007>011-017>019-026>030-037>042-050>054-066-191500-
   NORTHEAST IOWA

CITY           SKY/WX    TMP DP  RH WIND       PRES   REMARKS
CEDAR RAPIDS     N/A     28  21  75 S9        29.82F WCI  19
CHARLES CITY *   N/A     25  25 100 S12       29.72F WCI  14
CLINTON *        N/A     28  22  78 SW14      29.86F WCI  17
DECORAH *        N/A     28  23  80 VRB7G13   29.72F WCI  21
DUBUQUE          N/A     25  19  78 SW13      29.80S WCI  14
MONTICELLO *     N/A     27  21  80 S8        29.83R WCI  18
OELWEIN *        N/A     25  25 100 S13       29.76F WCI  13
WATERLOO         N/A     26  20  77 S8        29.77F WCI  18
$$

IAZ064-065-067-068-078-191500-
   EAST CENTRAL IOWA

CITY           SKY/WX    TMP DP  RH WIND       PRES   REMARKS
DAVENPORT        N/A     31  19  61 S16       29.88F WCI  20
IOWA CITY        N/A     29  19  66 S7        29.86F WCI  22
MT. PLEASANT * CLOUDY    30  19  64 SW13      29.90S WCI  20
MUSCATINE *      N/A     32  19  59 S13       29.89F WCI  22
QUAD CITIES      N/A     30  20  66 SW12      29.87F WCI  20
$$

IAZ062-063-075>077-085>089-095>099-191500-
   SOUTHEAST IOWA

CITY           SKY/WX    TMP DP  RH WIND       PRES   REMARKS
BURLINGTON     CLOUDY    28  18  66 S13       29.91S WCI  17
FAIRFIELD *    CLOUDY    30  19  64 SW13      29.87S WCI  20
FORT MADISON * CLOUDY    30  19  64 SW12G20   29.92S WCI  21
KEOKUK *       CLOUDY    30  19  64 SW13      29.93R WCI  20
OSKALOOSA *      N/A     31  22  68 SW13      29.84F WCI  22
OTTUMWA        CLOUDY    33  20  58 SW15      29.85S WCI  23
WASHINGTON *   PTCLDY    28  21  74 S12       29.88S WCI  18
$$

ABBREVIATIONS USED IN REMARKS
   TC - TEMPERATURES IN CELSIUS
  WCI - WIND CHILL INDEX
   HX - HEAT INDEX
  VSB - VISIBILITY
$$




USA.gov is the U.S. government's official web portal to all federal, state and local government web resources and services.